Weather History for KBML - February, 2005

Change the Weather History Date:

Saturday, February 5, 2005

  Actual Average Record
Temperature  
Mean Temperature 26 °F -  
Max Temperature 46 °F 26 °F 46 °F (2005)
Min Temperature 6 °F 1 °F -20 °F (2000)
Degree Days  
Heating Degree Days 39    
Moisture  
Dew Point 14 °F    
Average Humidity 73    
Maximum Humidity 96    
Minimum Humidity 36    
Precipitation  
Precipitation 0.00 in - - ()
Sea Level Pressure  
Sea Level Pressure 30.47 in    
Wind  
Wind Speed 1 mph (NW)    
Max Wind Speed 9 mph    
Max Gust Speed -    
Visibility 9 miles    
Events      
Averages and records for this station are not official NWS values.
T = Trace of Precipitation, MM = Missing Value Source: NWS Daily Summary

Daily Weather History Graph

Daily Weather History Graph

Search for Another Location

Airport or City:

Trip Planner

Search our weather history database for the weather conditions in past years. The results will help you decide how hot, cold, wet, or windy it might be!

Date:

Astronomy

Feb. 05, 2005 Rise Set
Actual Time 6:58 AM EST 4:59 PM EST
Civil Twilight 6:27 AM EST 5:30 PM EST
Nautical Twilight 5:53 AM EST 6:04 PM EST
Astronomical Twilight 5:19 AM EST 6:38 PM EST
Moon 4:35 AM EST (2/5) 12:42 PM EST (2/5)
Length of Visible Light 11h 02m
Length of Day
10h 01m
Waning Crescent, 15% of the Moon is Illuminated
Feb 5
Waning Crescent
Feb 8
New
Feb 15
First Quarter
Feb 23
Full
Mar 3
Last Quarter

Hourly Weather History & Observations

Time (EST) Temp. Windchill Dew Point Humidity Pressure Visibility Wind Dir Wind Speed Gust Speed Precip Events Conditions
12:52 AM 14.0 °F - 10.9 °F 88% 30.35 in 10.0 mi Calm Calm - N/A   Clear
1:52 AM 10.9 °F - 9.0 °F 92% 30.36 in 10.0 mi Calm Calm - N/A   Clear
2:52 AM 10.0 °F - 7.0 °F 87% 30.38 in 10.0 mi Calm Calm - N/A   Clear
3:52 AM 7.0 °F - 3.9 °F 87% 30.39 in 10.0 mi Calm Calm - N/A   Clear
4:52 AM 6.1 °F - 3.0 °F 87% 30.43 in 10.0 mi Calm Calm - N/A   Clear
5:52 AM 6.1 °F - 1.9 °F 83% 30.45 in 10.0 mi Calm Calm - N/A   Clear
6:52 AM 6.1 °F - 3.0 °F 87% 30.46 in 10.0 mi Calm Calm - N/A   Clear
7:52 AM 7.0 °F - 3.0 °F 84% 30.48 in 10.0 mi Calm Calm - N/A   Clear
8:52 AM 16.0 °F - 12.0 °F 84% 30.48 in 10.0 mi Calm Calm - N/A   Clear
9:52 AM 27.0 °F - 15.1 °F 61% 30.48 in 10.0 mi Calm Calm - N/A   Clear
10:52 AM 33.1 °F - 17.1 °F 52% 30.47 in 10.0 mi Calm Calm - N/A   Clear
11:52 AM 41.0 °F 37.1 °F 19.0 °F 41% 30.45 in 10.0 mi North 5.8 mph - N/A   Clear
12:52 PM 44.1 °F 41.5 °F 21.0 °F 40% 30.43 in 10.0 mi Variable 4.6 mph - N/A   Clear
1:52 PM 46.9 °F - 21.0 °F 36% 30.43 in 10.0 mi NW 9.2 mph - N/A   Clear
2:52 PM 45.0 °F 41.2 °F 19.9 °F 37% 30.43 in 10.0 mi NW 6.9 mph - N/A   Clear
3:52 PM 45.0 °F 42.6 °F 21.0 °F 39% 30.45 in 10.0 mi WNW 4.6 mph - N/A   Clear
4:52 PM 41.0 °F 37.1 °F 21.0 °F 45% 30.48 in 10.0 mi NW 5.8 mph - N/A   Clear
5:52 PM 30.9 °F - 23.0 °F 72% 30.50 in 10.0 mi Calm Calm - N/A   Clear
6:52 PM 25.0 °F - 19.9 °F 81% 30.52 in 10.0 mi Calm Calm - N/A   Clear
7:52 PM 21.9 °F - 19.0 °F 89% 30.53 in 9.0 mi Calm Calm - N/A   Clear
8:52 PM 21.9 °F - 19.0 °F 89% 30.55 in 8.0 mi Calm Calm - N/A   Clear
9:52 PM 19.0 °F - 17.1 °F 92% 30.56 in 7.0 mi Calm Calm - N/A   Clear
10:52 PM 19.9 °F - 18.0 °F 92% 30.56 in 6.0 mi Calm Calm - N/A   Clear
11:52 PM 17.1 °F - 16.0 °F 96% 30.57 in 5.0 mi Calm Calm - N/A   Clear